Regional Weather Roundup
Issued by NWS

Home | Current Version | Previous Version | Graphics & Text | Print | Product List | Glossary On
Versions: 1 2 3 4 5 6 7 8 9 10 11 12 13 14 15 16 17 18 19 20 21 22 23 24 25 26 27 28 29 30 31 32 33 34 35 36 37 38 39 40 41 42 43 44 45 46 47 48 49 50
391
ASUS44 KMEG 300400
RWRTN
TENNESSEE HOURLY STATE WEATHER ROUNDUP
NATIONAL WEATHER SERVICE MEMPHIS TN
1100 PM CDT THU SEP 29 2016

TNZ002-004-019-021-049-052-054-088>092-300500-
WEST TENNESSEE

CITY           SKY/WX    TMP DP  RH WIND       PRES   REMARKS
MEMPHIS INTL   MOCLDY    64  53  67 N5        30.15S
NWS MEMPHIS      N/A     62 N/A N/A MISG        N/A
JACKSON          N/A    N/A N/A N/A MISG      30.14F
DYERSBURG      CLEAR    N/A N/A N/A MISG        N/A
PARIS          CLEAR     52  52 100 CALM      30.13F
$$

TNZ008-025-027-028-033-062-065-066-300500-
NORTH MIDDLE TENNESSEE

CITY           SKY/WX    TMP DP  RH WIND       PRES   REMARKS
NASHVILLE      PTCLDY    54  51  90 CALM      30.12S
CLARKSVILLE    PTCLDY    54  53  97 W5        30.10F
SMYRNA         CLEAR     52  50  93 CALM      30.13S
COOKEVILLE     CLEAR     48  46  93 CALM      30.10F
CROSSVILLE     CLEAR     47  45  93 CALM      30.11F
$$

TNZ061-075-076-078-094-096-097-300500-
SOUTH MIDDLE TENNESSEE

CITY           SKY/WX    TMP DP  RH WIND       PRES   REMARKS
SHELBYVILLE    CLEAR     50  48  93 CALM      30.13S
$$

TNZ017-018-042-046-047-300500-
NORTHEAST TENNESSEE

CITY           SKY/WX    TMP DP  RH WIND       PRES   REMARKS
TRI CITIES     CLOUDY    59  57  93 CALM      30.07F
$$

TNZ012-013-036-069-073-074-300500-
CENTRAL EAST TENNESSEE

CITY           SKY/WX    TMP DP  RH WIND       PRES   REMARKS
KNOXVILLE      PTCLDY    58  47  66 N7        30.07F
OAK RIDGE      CLEAR     54  47  77 CALM      30.10S
GATLINBURG     CLOUDY    61  48  63 W6        30.07F
$$

TNZ083-085-099-300500-
SOUTHEAST TENNESSEE

CITY           SKY/WX    TMP DP  RH WIND       PRES   REMARKS
CHATTANOOGA    PTCLDY    59  47  64 NW6       30.09F
$$

SKY/WX REPORTED AS FAIR MEANS FEW OR NO CLOUDS BELOW
12 THOUSAND FEET.





USA.gov is the U.S. government's official web portal to all federal, state and local government web resources and services.